| time (UTC) | temp F | wind direction | speed knots | gust knots | rain 1hr in | rain 24hr in | rain mn in | humidity % | barometer mb |
| 20260502130739 | 80 | 265 | 2.6 | 5.2 | 0.00 | 0.00 | 0.00 | 25 | 1022.2 |
| 20260502130440 | 79 | 242 | 2.6 | 4.3 | 0.00 | 0.00 | 0.00 | 26 | 1022.2 |
| 20260502130258 | 79 | 242 | 2.6 | 4.3 | 0.00 | 0.00 | 0.00 | 26 | 1022.2 |
| 20260502123447 | 81 | 112 | 1.7 | 3.5 | 0.00 | 0.00 | 0.00 | 24 | 1022.7 |
| 20260502123005 | 80 | 139 | 2.6 | 5.2 | 0.00 | 0.00 | 0.00 | 23 | 1022.7 |
| 20260502122523 | 81 | 135 | 2.6 | 6.1 | 0.00 | 0.00 | 0.00 | 24 | 1022.8 |
| 20260502122041 | 79 | 176 | 2.6 | 5.2 | 0.00 | 0.00 | 0.00 | 24 | 1022.8 |
| 20260502121600 | 78 | 183 | 2.6 | 3.5 | 0.00 | 0.00 | 0.00 | 24 | 1022.8 |
| 20260502121118 | 77 | 167 | 3.5 | 7.8 | 0.00 | 0.00 | 0.00 | 24 | 1022.9 |
| 20260502120637 | 77 | 143 | 4.3 | 7.0 | 0.00 | 0.00 | 0.00 | 24 | 1023.0 |
| 20260502120155 | 78 | 137 | 4.3 | 7.8 | 0.00 | 0.00 | 0.00 | 24 | 1023.1 |
| 20260502115714 | 77 | 170 | 5.2 | 7.8 | 0.00 | 0.00 | 0.00 | 24 | 1023.1 |
| 20260502115232 | 76 | 165 | 6.1 | 7.0 | 0.00 | 0.00 | 0.00 | 24 | 1023.2 |
| 20260502114750 | 80 | 162 | 2.6 | 7.0 | 0.00 | 0.00 | 0.00 | 23 | 1023.3 |
| 20260502114308 | 81 | 66 | 2.6 | 3.5 | 0.00 | 0.00 | 0.00 | 24 | 1023.4 |
| 20260502113827 | 81 | 76 | 2.6 | 4.3 | 0.00 | 0.00 | 0.00 | 23 | 1023.4 |
| 20260502113345 | 80 | 86 | 2.6 | 7.0 | 0.00 | 0.00 | 0.00 | 24 | 1023.4 |
| 20260502112903 | 79 | 34 | 2.6 | 3.5 | 0.00 | 0.00 | 0.00 | 24 | 1023.4 |
| 20260502112421 | 78 | 107 | 4.3 | 7.8 | 0.00 | 0.00 | 0.00 | 24 | 1023.5 |
| 20260502112111 | 79 | 11 | 2.6 | 4.3 | 0.00 | 0.00 | 0.00 | 24 | 1023.6 |
| 20260502111940 | 79 | 11 | 2.6 | 4.3 | 0.00 | 0.00 | 0.00 | 24 | 1023.6 |
| 20260502111458 | 79 | 69 | 5.2 | 8.7 | 0.00 | 0.00 | 0.00 | 25 | 1023.7 |
| 20260502111016 | 80 | 120 | 3.5 | 7.0 | 0.00 | 0.00 | 0.00 | 24 | 1023.8 |
| 20260502110534 | 79 | 97 | 2.6 | 8.7 | 0.00 | 0.00 | 0.00 | 26 | 1023.8 |
| 20260502110210 | 80 | 158 | 4.3 | 8.7 | 0.00 | 0.00 | 0.00 | 25 | 1023.8 |
| 20260502110052 | 80 | 158 | 4.3 | 8.7 | 0.00 | 0.00 | 0.00 | 25 | 1023.8 |
| 20260502105610 | 80 | 345 | 2.6 | 7.0 | 0.00 | 0.00 | 0.00 | 28 | 1023.9 |
| 20260502105128 | 79 | 21 | 2.6 | 4.3 | 0.00 | 0.00 | 0.00 | 28 | 1023.9 |
| 20260502104647 | 78 | 337 | 2.6 | 5.2 | 0.00 | 0.00 | 0.00 | 27 | 1024.0 |
| 20260502104205 | 77 | 139 | 1.7 | 3.5 | 0.00 | 0.00 | 0.00 | 27 | 1024.1 |
| 20260502103723 | 76 | 126 | 4.3 | 6.1 | 0.00 | 0.00 | 0.00 | 27 | 1024.2 |
| 20260502103242 | 75 | 202 | 2.6 | 6.1 | 0.00 | 0.00 | 0.00 | 28 | 1024.2 |
| 20260502102800 | 74 | 192 | 3.5 | 5.2 | 0.00 | 0.00 | 0.00 | 28 | 1024.3 |
| 20260502102410 | 75 | 169 | 2.6 | 6.1 | 0.00 | 0.00 | 0.00 | 28 | 1024.3 |
| 20260502102319 | 75 | 169 | 2.6 | 6.1 | 0.00 | 0.00 | 0.00 | 28 | 1024.3 |
| 20260502101837 | 75 | 162 | 1.7 | 2.6 | 0.00 | 0.00 | 0.00 | 29 | 1024.5 |
| 20260502101355 | 75 | 140 | 2.6 | 4.3 | 0.00 | 0.00 | 0.00 | 29 | 1024.5 |
| 20260502100917 | 75 | 148 | 5.2 | 9.6 | 0.00 | 0.00 | 0.00 | 28 | 1024.6 |
| 20260502100914 | 75 | 148 | 5.2 | 9.6 | 0.00 | 0.00 | 0.00 | 28 | 1024.6 |
| 20260502100436 | 76 | 102 | 5.2 | 11.3 | 0.00 | 0.00 | 0.00 | 28 | 1024.6 |
| 20260502100432 | 76 | 102 | 5.2 | 11.3 | 0.00 | 0.00 | 0.00 | 28 | 1024.6 |
| 20260502091255 | 71 | 137 | 6.1 | 8.7 | 0.00 | 0.00 | 0.00 | 32 | 1025.2 |
| 20260502090814 | 71 | 138 | 4.3 | 6.1 | 0.00 | 0.00 | 0.00 | 32 | 1025.1 |
| 20260502090333 | 69 | 160 | 5.2 | 9.6 | 0.00 | 0.00 | 0.00 | 35 | 1025.2 |
| 20260502071101 | 67 | 60 | 1.7 | 3.5 | 0.00 | 0.00 | 0.00 | 45 | 1025.8 |
| 20260502070624 | 67 | 38 | 1.7 | 3.5 | 0.00 | 0.00 | 0.00 | 46 | 1025.9 |
| 20260502070620 | 67 | 38 | 1.7 | 3.5 | 0.00 | 0.00 | 0.00 | 46 | 1025.9 |
| 20260502070139 | 66 | 48 | 1.7 | 2.6 | 0.00 | 0.00 | 0.00 | 46 | 1025.9 |
| 20260502065702 | 65 | 60 | 1.7 | 3.5 | 0.00 | 0.00 | 0.00 | 46 | 1025.9 |
| 20260502065658 | 65 | 60 | 1.7 | 3.5 | 0.00 | 0.00 | 0.00 | 46 | 1025.9 |
| 20260502065218 | 64 | 36 | 0.9 | 1.7 | 0.00 | 0.00 | 0.00 | 46 | 1025.9 |
| 20260502064737 | 63 | 51 | 1.7 | 2.6 | 0.00 | 0.00 | 0.00 | 46 | 1025.8 |
| 20260502064300 | 62 | 48 | 3.5 | 4.3 | 0.00 | 0.00 | 0.00 | 46 | 1025.9 |
| 20260502064256 | 62 | 48 | 3.5 | 4.3 | 0.00 | 0.00 | 0.00 | 46 | 1025.9 |
| 20260502063819 | 62 | 54 | 2.6 | 4.3 | 0.00 | 0.00 | 0.00 | 46 | 1025.8 |
| 20260502063815 | 62 | 54 | 2.6 | 4.3 | 0.00 | 0.00 | 0.00 | 46 | 1025.8 |
| 20260502063339 | 62 | 45 | 3.5 | 3.5 | 0.00 | 0.00 | 0.00 | 46 | 1025.9 |
| 20260502063335 | 62 | 45 | 3.5 | 3.5 | 0.00 | 0.00 | 0.00 | 46 | 1025.9 |
| 20260502062858 | 61 | 52 | 3.5 | 4.3 | 0.00 | 0.00 | 0.00 | 46 | 1025.9 |
| 20260502062854 | 61 | 52 | 3.5 | 4.3 | 0.00 | 0.00 | 0.00 | 46 | 1025.9 |
| 20260502062418 | 61 | 55 | 3.5 | 3.5 | 0.00 | 0.00 | 0.00 | 45 | 1025.9 |
| 20260502062414 | 61 | 55 | 3.5 | 3.5 | 0.00 | 0.00 | 0.00 | 45 | 1025.9 |
| 20260502061937 | 61 | 63 | 3.5 | 4.3 | 0.00 | 0.00 | 0.00 | 46 | 1025.8 |
| 20260502061933 | 61 | 63 | 3.5 | 4.3 | 0.00 | 0.00 | 0.00 | 46 | 1025.8 |
| 20260502061456 | 60 | 71 | 4.3 | 5.2 | 0.00 | 0.00 | 0.00 | 45 | 1025.8 |
| 20260502061452 | 60 | 71 | 4.3 | 5.2 | 0.00 | 0.00 | 0.00 | 45 | 1025.8 |
| 20260502061016 | 60 | 64 | 3.5 | 5.2 | 0.00 | 0.00 | 0.00 | 46 | 1025.8 |
| 20260502061012 | 60 | 64 | 3.5 | 5.2 | 0.00 | 0.00 | 0.00 | 46 | 1025.8 |
| 20260502060535 | 59 | 57 | 4.3 | 5.2 | 0.00 | 0.00 | 0.00 | 47 | 1025.8 |
| 20260502060531 | 59 | 57 | 4.3 | 5.2 | 0.00 | 0.00 | 0.00 | 47 | 1025.8 |
| 20260502060055 | 59 | 54 | 4.3 | 5.2 | 0.00 | 0.00 | 0.00 | 47 | 1025.8 |
| 20260502060051 | 59 | 54 | 4.3 | 5.2 | 0.00 | 0.00 | 0.00 | 47 | 1025.8 |
| 20260502055614 | 59 | 51 | 4.3 | 6.1 | 0.00 | 0.00 | 0.00 | 46 | 1025.7 |
| 20260502055610 | 59 | 51 | 4.3 | 6.1 | 0.00 | 0.00 | 0.00 | 46 | 1025.7 |
| 20260502055209 | 59 | 48 | 5.2 | 6.1 | 0.00 | 0.00 | 0.00 | 45 | 1025.8 |
| 20260502055134 | 59 | 48 | 5.2 | 6.1 | 0.00 | 0.00 | 0.00 | 45 | 1025.8 |
| 20260502055130 | 59 | 48 | 5.2 | 6.1 | 0.00 | 0.00 | 0.00 | 45 | 1025.8 |
| 20260502054809 | 60 | 59 | 4.3 | 5.2 | 0.00 | 0.00 | 0.00 | 44 | 1025.8 |
| 20260502054653 | 60 | 59 | 4.3 | 5.2 | 0.00 | 0.00 | 0.00 | 44 | 1025.8 |
| 20260502054649 | 60 | 59 | 4.3 | 5.2 | 0.00 | 0.00 | 0.00 | 44 | 1025.8 |
| 20260502054508 | 60 | 57 | 3.5 | 3.5 | 0.00 | 0.00 | 0.00 | 44 | 1025.8 |
| 20260502054213 | 60 | 57 | 3.5 | 3.5 | 0.00 | 0.00 | 0.00 | 44 | 1025.8 |
| 20260502054209 | 60 | 57 | 3.5 | 3.5 | 0.00 | 0.00 | 0.00 | 44 | 1025.8 |
| 20260502053728 | 60 | 64 | 2.6 | 3.5 | 0.00 | 0.00 | 0.00 | 44 | 1025.9 |
| 20260502053248 | 60 | 74 | 3.5 | 4.3 | 0.00 | 0.00 | 0.00 | 44 | 1025.9 |
| 20260502052904 | 60 | 75 | 3.5 | 5.2 | 0.00 | 0.00 | 0.00 | 44 | 1025.9 |
| 20260502052811 | 60 | 75 | 3.5 | 5.2 | 0.00 | 0.00 | 0.00 | 44 | 1025.9 |
| 20260502052807 | 60 | 75 | 3.5 | 5.2 | 0.00 | 0.00 | 0.00 | 44 | 1025.9 |
| 20260502052544 | 59 | 49 | 2.6 | 3.5 | 0.00 | 0.00 | 0.00 | 44 | 1025.9 |
| 20260502052327 | 59 | 49 | 2.6 | 3.5 | 0.00 | 0.00 | 0.00 | 44 | 1025.9 |
| 20260502052212 | 60 | 51 | 2.6 | 2.6 | 0.00 | 0.00 | 0.00 | 44 | 1025.9 |
| 20260502051850 | 60 | 51 | 2.6 | 2.6 | 0.00 | 0.00 | 0.00 | 44 | 1025.9 |
| 20260502051846 | 60 | 51 | 2.6 | 2.6 | 0.00 | 0.00 | 0.00 | 44 | 1025.9 |
| 20260502051410 | 60 | 60 | 2.6 | 3.5 | 0.00 | 0.00 | 0.00 | 43 | 1025.9 |
| 20260502051406 | 60 | 60 | 2.6 | 3.5 | 0.00 | 0.00 | 0.00 | 43 | 1025.9 |
| 20260502050929 | 60 | 64 | 2.6 | 3.5 | 0.00 | 0.00 | 0.00 | 44 | 1025.9 |
| 20260502050925 | 60 | 64 | 2.6 | 3.5 | 0.00 | 0.00 | 0.00 | 44 | 1025.9 |
| 20260502050444 | 60 | 66 | 1.7 | 2.6 | 0.00 | 0.00 | 0.00 | 44 | 1025.9 |
| 20260502050008 | 60 | 81 | 0.9 | 1.7 | 0.00 | 0.00 | 0.00 | 44 | 1025.9 |
| 20260502050004 | 60 | 81 | 0.9 | 1.7 | 0.00 | 0.00 | 0.00 | 44 | 1025.9 |
| 20260502045523 | 59 | 90 | 0.9 | 0.9 | 0.00 | 0.00 | 0.00 | 45 | 1025.9 |
| 20260502045047 | 59 | 87 | 0.9 | 1.7 | 0.00 | 0.00 | 0.00 | 45 | 1025.8 |
| 20260502045043 | 59 | 87 | 0.9 | 1.7 | 0.00 | 0.00 | 0.00 | 45 | 1025.8 |
| 20260502044606 | 58 | 99 | 0.9 | 1.7 | 0.00 | 0.00 | 0.00 | 45 | 1025.7 |
| 20260502044602 | 58 | 99 | 0.9 | 1.7 | 0.00 | 0.00 | 0.00 | 45 | 1025.7 |
| 20260502044122 | 58 | 108 | 2.6 | 3.5 | 0.00 | 0.00 | 0.00 | 45 | 1025.7 |
| 20260502043641 | 58 | 109 | 2.6 | 4.3 | 0.00 | 0.00 | 0.00 | 45 | 1025.7 |
| 20260502043201 | 57 | 135 | 2.6 | 3.5 | 0.00 | 0.00 | 0.00 | 45 | 1025.8 |
| 20260502042720 | 57 | 135 | 2.6 | 2.6 | 0.00 | 0.00 | 0.00 | 45 | 1025.7 |
| 20260502042244 | 57 | 135 | 1.7 | 2.6 | 0.00 | 0.00 | 0.00 | 46 | 1025.8 |
| 20260502042240 | 57 | 135 | 1.7 | 2.6 | 0.00 | 0.00 | 0.00 | 46 | 1025.8 |
| 20260502041804 | 56 | 135 | 1.7 | 1.7 | 0.00 | 0.00 | 0.00 | 46 | 1025.9 |
| 20260502041800 | 56 | 135 | 1.7 | 1.7 | 0.00 | 0.00 | 0.00 | 46 | 1025.9 |
| 20260502041319 | 56 | 135 | 1.7 | 1.7 | 0.00 | 0.00 | 0.00 | 46 | 1025.9 |
| 20260502041006 | 55 | 135 | 1.7 | 1.7 | 0.00 | 0.00 | 0.00 | 46 | 1025.8 |
| 20260502040839 | 55 | 135 | 1.7 | 1.7 | 0.00 | 0.00 | 0.00 | 46 | 1025.8 |
| 20260502040359 | 55 | 135 | 1.7 | 1.7 | 0.00 | 0.00 | 0.00 | 46 | 1025.9 |
| 20260502035919 | 55 | 135 | 1.7 | 2.6 | 0.00 | 0.00 | 0.00 | 46 | 1025.8 |
| 20260502035439 | 55 | 141 | 1.7 | 2.6 | 0.00 | 0.00 | 0.00 | 46 | 1025.8 |
| 20260502034958 | 55 | 148 | 1.7 | 2.6 | 0.00 | 0.00 | 0.00 | 46 | 1025.9 |
| 20260502034518 | 54 | 199 | 1.7 | 1.7 | 0.00 | 0.00 | 0.00 | 48 | 1025.8 |
| 20260502034042 | 54 | 245 | 0.9 | 1.7 | 0.00 | 0.00 | 0.00 | 48 | 1025.9 |
| 20260502034038 | 54 | 245 | 0.9 | 1.7 | 0.00 | 0.00 | 0.00 | 48 | 1025.9 |
| 20260502033558 | 54 | 135 | 0.9 | 1.7 | 0.00 | 0.00 | 0.00 | 47 | 1025.9 |
| 20260502033118 | 55 | 135 | 1.7 | 2.6 | 0.00 | 0.00 | 0.00 | 46 | 1025.9 |
| 20260502032638 | 55 | 128 | 2.6 | 3.5 | 0.00 | 0.00 | 0.00 | 45 | 1025.8 |
| 20260502032411 | 55 | 91 | 3.5 | 3.5 | 0.00 | 0.00 | 0.00 | 45 | 1025.8 |
| 20260502032157 | 55 | 91 | 3.5 | 3.5 | 0.00 | 0.00 | 0.00 | 45 | 1025.8 |
| 20260502031721 | 55 | 93 | 3.5 | 3.5 | 0.00 | 0.00 | 0.00 | 45 | 1025.8 |
| 20260502031717 | 55 | 93 | 3.5 | 3.5 | 0.00 | 0.00 | 0.00 | 45 | 1025.8 |
| 20260502031309 | 55 | 129 | 2.6 | 2.6 | 0.00 | 0.00 | 0.00 | 45 | 1025.9 |
| 20260502031237 | 55 | 129 | 2.6 | 2.6 | 0.00 | 0.00 | 0.00 | 45 | 1025.9 |
| 20260502030757 | 55 | 135 | 1.7 | 2.6 | 0.00 | 0.00 | 0.00 | 45 | 1026.0 |
| 20260502030413 | 55 | 91 | 1.7 | 2.6 | 0.00 | 0.00 | 0.00 | 45 | 1026.0 |
| 20260502030317 | 55 | 91 | 1.7 | 2.6 | 0.00 | 0.00 | 0.00 | 45 | 1026.0 |
| 20260502025837 | 55 | 90 | 1.7 | 2.6 | 0.00 | 0.00 | 0.00 | 44 | 1026.0 |
| 20260502025357 | 54 | 84 | 1.7 | 1.7 | 0.00 | 0.00 | 0.00 | 45 | 1026.1 |
| 20260502024916 | 54 | 90 | 1.7 | 1.7 | 0.00 | 0.00 | 0.00 | 46 | 1026.1 |
| 20260502024436 | 54 | 113 | 0.9 | 1.7 | 0.00 | 0.00 | 0.00 | 46 | 1026.1 |
| 20260502023956 | 54 | 135 | 0.0 | 0.9 | 0.00 | 0.00 | 0.00 | 45 | 1026.1 |
| 20260502023516 | 55 | 103 | 1.7 | 2.6 | 0.00 | 0.00 | 0.00 | 44 | 1026.1 |
| 20260502023036 | 55 | 83 | 1.7 | 2.6 | 0.00 | 0.00 | 0.00 | 45 | 1026.1 |
| 20260502022556 | 55 | 77 | 1.7 | 2.6 | 0.00 | 0.00 | 0.00 | 45 | 1026.1 |
| 20260502022116 | 55 | 63 | 2.6 | 3.5 | 0.00 | 0.00 | 0.00 | 46 | 1026.1 |
| 20260502021639 | 55 | 75 | 1.7 | 2.6 | 0.00 | 0.00 | 0.00 | 45 | 1026.2 |
| 20260502021635 | 55 | 75 | 1.7 | 2.6 | 0.00 | 0.00 | 0.00 | 45 | 1026.2 |
| 20260502021159 | 55 | 90 | 2.6 | 2.6 | 0.00 | 0.00 | 0.00 | 45 | 1026.1 |
| 20260502021155 | 55 | 90 | 2.6 | 2.6 | 0.00 | 0.00 | 0.00 | 45 | 1026.1 |
| 20260502020715 | 55 | 97 | 1.7 | 2.6 | 0.00 | 0.00 | 0.00 | 46 | 1026.1 |
| 20260502020235 | 55 | 135 | 0.0 | 0.0 | 0.00 | 0.00 | 0.00 | 45 | 1026.2 |
| 20260502015918 | 55 | 142 | 0.9 | 1.7 | 0.00 | 0.00 | 0.00 | 45 | 1026.2 |
| 20260502015755 | 55 | 142 | 0.9 | 1.7 | 0.00 | 0.00 | 0.00 | 45 | 1026.2 |
| 20260502015318 | 54 | 246 | 2.6 | 5.2 | 0.00 | 0.00 | 0.00 | 47 | 1026.3 |
| 20260502015315 | 54 | 246 | 2.6 | 5.2 | 0.00 | 0.00 | 0.00 | 47 | 1026.3 |
| 20260502014835 | 56 | 129 | 3.5 | 5.2 | 0.00 | 0.00 | 0.00 | 45 | 1026.2 |
| 20260502014354 | 57 | 90 | 3.5 | 3.5 | 0.00 | 0.00 | 0.00 | 43 | 1026.2 |
| 20260502013919 | 57 | 94 | 2.6 | 3.5 | 0.00 | 0.00 | 0.00 | 43 | 1026.2 |
| 20260502013914 | 57 | 94 | 2.6 | 3.5 | 0.00 | 0.00 | 0.00 | 43 | 1026.2 |
| 20260502013434 | 57 | 116 | 2.6 | 4.3 | 0.00 | 0.00 | 0.00 | 43 | 1026.3 |
| 20260502013203 | 57 | 90 | 3.5 | 4.3 | 0.00 | 0.00 | 0.00 | 43 | 1026.3 |
| 20260502012953 | 57 | 90 | 3.5 | 4.3 | 0.00 | 0.00 | 0.00 | 43 | 1026.3 |
| 20260502012513 | 57 | 103 | 2.6 | 3.5 | 0.00 | 0.00 | 0.00 | 43 | 1026.3 |
| 20260502012033 | 57 | 89 | 3.5 | 4.3 | 0.00 | 0.00 | 0.00 | 43 | 1026.4 |
| 20260502011553 | 57 | 81 | 2.6 | 3.5 | 0.00 | 0.00 | 0.00 | 43 | 1026.4 |
| 20260502011112 | 57 | 78 | 3.5 | 4.3 | 0.00 | 0.00 | 0.00 | 43 | 1026.4 |
| 20260502010632 | 58 | 87 | 3.5 | 4.3 | 0.00 | 0.00 | 0.00 | 43 | 1026.4 |
| 20260502010156 | 58 | 90 | 2.6 | 4.3 | 0.00 | 0.00 | 0.00 | 43 | 1026.4 |
| 20260502010152 | 58 | 90 | 2.6 | 4.3 | 0.00 | 0.00 | 0.00 | 43 | 1026.4 |
| 20260502005712 | 58 | 90 | 3.5 | 4.3 | 0.00 | 0.00 | 0.00 | 43 | 1026.5 |
| 20260502005231 | 58 | 87 | 4.3 | 6.1 | 0.00 | 0.00 | 0.00 | 42 | 1026.5 |
| 20260502004835 | 58 | 90 | 4.3 | 6.1 | 0.00 | 0.00 | 0.00 | 42 | 1026.5 |
| 20260502004751 | 58 | 90 | 4.3 | 6.1 | 0.00 | 0.00 | 0.00 | 42 | 1026.5 |
| 20260502004311 | 58 | 90 | 4.3 | 6.1 | 0.00 | 0.00 | 0.00 | 42 | 1026.6 |
| 20260502003834 | 58 | 84 | 3.5 | 4.3 | 0.00 | 0.00 | 0.00 | 42 | 1026.6 |
| 20260502003831 | 58 | 84 | 3.5 | 4.3 | 0.00 | 0.00 | 0.00 | 42 | 1026.6 |
| 20260502003350 | 58 | 93 | 3.5 | 4.3 | 0.00 | 0.00 | 0.00 | 42 | 1026.6 |
| 20260502002914 | 58 | 90 | 3.5 | 4.3 | 0.00 | 0.00 | 0.00 | 42 | 1026.7 |
| 20260502002910 | 58 | 90 | 3.5 | 4.3 | 0.00 | 0.00 | 0.00 | 42 | 1026.7 |
| 20260502002430 | 57 | 77 | 2.6 | 4.3 | 0.00 | 0.00 | 0.00 | 42 | 1026.7 |
| 20260502001950 | 58 | 86 | 3.5 | 4.3 | 0.00 | 0.00 | 0.00 | 42 | 1026.7 |
| 20260502001509 | 58 | 87 | 2.6 | 4.3 | 0.00 | 0.00 | 0.00 | 42 | 1026.7 |
| 20260502001029 | 58 | 90 | 4.3 | 5.2 | 0.00 | 0.00 | 0.00 | 42 | 1026.8 |
| 20260502000549 | 58 | 87 | 5.2 | 7.0 | 0.00 | 0.00 | 0.00 | 42 | 1026.7 |
| 20260502000108 | 58 | 89 | 3.5 | 4.3 | 0.00 | 0.00 | 0.00 | 42 | 1026.8 |
| 20260501235632 | 58 | 86 | 3.5 | 5.2 | 0.00 | 0.00 | 0.00 | 42 | 1026.8 |
| 20260501235628 | 58 | 86 | 3.5 | 5.2 | 0.00 | 0.00 | 0.00 | 42 | 1026.8 |
| 20260501235152 | 58 | 78 | 3.5 | 4.3 | 0.00 | 0.00 | 0.00 | 42 | 1026.8 |
| 20260501235148 | 58 | 78 | 3.5 | 4.3 | 0.00 | 0.00 | 0.00 | 42 | 1026.8 |
| 20260501234708 | 58 | 72 | 3.5 | 4.3 | 0.00 | 0.00 | 0.00 | 42 | 1026.8 |
| 20260501234231 | 58 | 69 | 3.5 | 0.0 | 0.00 | 0.00 | 0.00 | 42 | 1.0 |
| 20260501234227 | 58 | 69 | 3.5 | 4.3 | 0.00 | 0.00 | 0.00 | 42 | 1026.8 |
| 20260501233747 | 58 | 73 | 2.6 | 5.2 | 0.00 | 0.00 | 0.00 | 43 | 1026.9 |
| 20260501233307 | 58 | 83 | 1.7 | 1.7 | 0.00 | 0.00 | 0.00 | 42 | 1026.9 |
| 20260501232827 | 58 | 90 | 2.6 | 2.6 | 0.00 | 0.00 | 0.00 | 42 | 1026.9 |
| 20260501232346 | 59 | 90 | 2.6 | 3.5 | 0.00 | 0.00 | 0.00 | 41 | 1026.9 |
| 20260501231906 | 59 | 90 | 2.6 | 2.6 | 0.00 | 0.00 | 0.00 | 41 | 1026.9 |
| 20260501231426 | 58 | 83 | 1.7 | 2.6 | 0.00 | 0.00 | 0.00 | 41 | 1027.0 |
| 20260501230945 | 58 | 80 | 2.6 | 2.6 | 0.00 | 0.00 | 0.00 | 42 | 1027.1 |
| 20260501230505 | 59 | 87 | 3.5 | 4.3 | 0.00 | 0.00 | 0.00 | 42 | 1027.1 |
| 20260501230025 | 58 | 81 | 2.6 | 3.5 | 0.00 | 0.00 | 0.00 | 42 | 1027.0 |
| 20260501225545 | 58 | 63 | 2.6 | 3.5 | 0.00 | 0.00 | 0.00 | 42 | 1027.1 |
| 20260501225104 | 58 | 87 | 2.6 | 4.3 | 0.00 | 0.00 | 0.00 | 42 | 1027.1 |
| 20260501224624 | 58 | 83 | 2.6 | 3.5 | 0.00 | 0.00 | 0.00 | 42 | 1027.1 |
| 20260501224144 | 58 | 80 | 1.7 | 3.5 | 0.00 | 0.00 | 0.00 | 41 | 1027.1 |
| 20260501223759 | 58 | 90 | 2.6 | 2.6 | 0.00 | 0.00 | 0.00 | 41 | 1027.2 |
| 20260501223703 | 58 | 90 | 1.7 | 2.6 | 0.00 | 0.00 | 0.00 | 42 | 1027.1 |
| 20260501223223 | 58 | 90 | 2.6 | 2.6 | 0.00 | 0.00 | 0.00 | 41 | 1027.2 |
| 20260501222743 | 58 | 89 | 1.7 | 2.6 | 0.00 | 0.00 | 0.00 | 41 | 1027.2 |
| 20260501222305 | 58 | 69 | 1.7 | 2.6 | 0.00 | 0.00 | 0.00 | 42 | 1027.2 |
| 20260501221822 | 58 | 48 | 2.6 | 2.6 | 0.00 | 0.00 | 0.00 | 41 | 1027.2 |
| 20260501221342 | 58 | 48 | 1.7 | 2.6 | 0.00 | 0.00 | 0.00 | 41 | 1027.2 |
| 20260501220902 | 58 | 51 | 2.6 | 2.6 | 0.00 | 0.00 | 0.00 | 41 | 1027.2 |
| 20260501220741 | 58 | 70 | 1.7 | 2.6 | 0.00 | 0.00 | 0.00 | 41 | 1027.2 |
| 20260501220425 | 58 | 70 | 1.7 | 2.6 | 0.00 | 0.00 | 0.00 | 41 | 1027.2 |
| 20260501220421 | 58 | 70 | 1.7 | 2.6 | 0.00 | 0.00 | 0.00 | 41 | 1027.2 |
| 20260501215942 | 58 | 64 | 1.7 | 2.6 | 0.00 | 0.00 | 0.00 | 41 | 1027.2 |
| 20260501215501 | 59 | 45 | 2.6 | 2.6 | 0.00 | 0.00 | 0.00 | 41 | 1027.3 |
| 20260501215020 | 59 | 51 | 2.6 | 3.5 | 0.00 | 0.00 | 0.00 | 41 | 1027.2 |
| 20260501214540 | 59 | 89 | 2.6 | 3.5 | 0.00 | 0.00 | 0.00 | 41 | 1027.2 |
| 20260501214104 | 59 | 52 | 2.6 | 2.6 | 0.00 | 0.00 | 0.00 | 41 | 1027.2 |
| 20260501214100 | 59 | 52 | 2.6 | 2.6 | 0.00 | 0.00 | 0.00 | 41 | 1027.2 |
| 20260501213620 | 59 | 45 | 2.6 | 2.6 | 0.00 | 0.00 | 0.00 | 41 | 1027.3 |
| 20260501213139 | 59 | 45 | 2.6 | 3.5 | 0.00 | 0.00 | 0.00 | 41 | 1027.2 |
| 20260501212659 | 59 | 45 | 3.5 | 3.5 | 0.00 | 0.00 | 0.00 | 41 | 1027.2 |
| 20260501212308 | 59 | 45 | 3.5 | 3.5 | 0.00 | 0.00 | 0.00 | 40 | 1027.1 |
| 20260501212219 | 59 | 45 | 3.5 | 3.5 | 0.00 | 0.00 | 0.00 | 40 | 1027.1 |
| 20260501211738 | 59 | 45 | 2.6 | 3.5 | 0.00 | 0.00 | 0.00 | 41 | 1027.2 |
| 20260501211258 | 59 | 45 | 2.6 | 3.5 | 0.00 | 0.00 | 0.00 | 41 | 1027.2 |
| 20260501210818 | 59 | 45 | 3.5 | 3.5 | 0.00 | 0.00 | 0.00 | 41 | 1027.3 |
| 20260501210441 | 59 | 44 | 2.6 | 3.5 | 0.00 | 0.00 | 0.00 | 41 | 1027.3 |
| 20260501210337 | 59 | 44 | 2.6 | 3.5 | 0.00 | 0.00 | 0.00 | 41 | 1027.3 |
| 20260501205857 | 59 | 24 | 2.6 | 3.5 | 0.00 | 0.00 | 0.00 | 41 | 1027.3 |
| 20260501205421 | 59 | 15 | 2.6 | 3.5 | 0.00 | 0.00 | 0.00 | 41 | 1027.3 |
| 20260501205417 | 59 | 15 | 2.6 | 3.5 | 0.00 | 0.00 | 0.00 | 41 | 1027.3 |
| 20260501204940 | 59 | 35 | 3.5 | 3.5 | 0.00 | 0.00 | 0.00 | 41 | 1027.3 |
| 20260501204937 | 59 | 35 | 3.5 | 3.5 | 0.00 | 0.00 | 0.00 | 41 | 1027.3 |
| 20260501204456 | 59 | 45 | 2.6 | 3.5 | 0.00 | 0.00 | 0.00 | 41 | 1027.3 |
| 20260501204016 | 59 | 45 | 2.6 | 3.5 | 0.00 | 0.00 | 0.00 | 41 | 1027.3 |
| 20260501203608 | 59 | 45 | 3.5 | 3.5 | 0.00 | 0.00 | 0.00 | 41 | 1027.4 |
| 20260501203536 | 59 | 45 | 3.5 | 3.5 | 0.00 | 0.00 | 0.00 | 41 | 1027.4 |
| 20260501203055 | 59 | 45 | 3.5 | 3.5 | 0.00 | 0.00 | 0.00 | 41 | 1027.3 |
| 20260501202615 | 59 | 45 | 3.5 | 3.5 | 0.00 | 0.00 | 0.00 | 41 | 1027.3 |
| 20260501202247 | 59 | 45 | 3.5 | 3.5 | 0.00 | 0.00 | 0.00 | 41 | 1027.3 |
| 20260501202135 | 59 | 45 | 3.5 | 3.5 | 0.00 | 0.00 | 0.00 | 41 | 1027.3 |
| 20260501201654 | 59 | 42 | 3.5 | 4.3 | 0.00 | 0.00 | 0.00 | 41 | 1027.4 |
| 20260501201214 | 59 | 45 | 3.5 | 4.3 | 0.00 | 0.00 | 0.00 | 42 | 1027.4 |
| 20260501200809 | 60 | 42 | 4.3 | 4.3 | 0.00 | 0.00 | 0.00 | 41 | 1027.3 |
| 20260501200734 | 60 | 42 | 4.3 | 4.3 | 0.00 | 0.00 | 0.00 | 41 | 1027.3 |
| 20260501200335 | 60 | 45 | 4.3 | 4.3 | 0.00 | 0.00 | 0.00 | 41 | 1027.3 |
| 20260501200253 | 60 | 45 | 4.3 | 4.3 | 0.00 | 0.00 | 0.00 | 41 | 1027.3 |
| 20260501195813 | 60 | 45 | 3.5 | 4.3 | 0.00 | 0.00 | 0.00 | 41 | 1027.3 |
| 20260501195333 | 60 | 45 | 3.5 | 3.5 | 0.00 | 0.00 | 0.00 | 41 | 1027.3 |
| 20260501194852 | 60 | 45 | 3.5 | 3.5 | 0.00 | 0.00 | 0.00 | 41 | 1027.3 |
| 20260501194412 | 60 | 23 | 3.5 | 3.5 | 0.00 | 0.00 | 0.00 | 41 | 1027.3 |
| 20260501194024 | 59 | 0 | 2.6 | 2.6 | 0.00 | 0.00 | 0.00 | 40 | 1027.4 |
| 20260501193932 | 59 | 0 | 2.6 | 2.6 | 0.00 | 0.00 | 0.00 | 40 | 1027.4 |
| 20260501193451 | 59 | 0 | 2.6 | 2.6 | 0.00 | 0.00 | 0.00 | 40 | 1027.3 |
| 20260501193011 | 59 | 0 | 2.6 | 2.6 | 0.00 | 0.00 | 0.00 | 38 | 1027.3 |
| 20260501192535 | 59 | 359 | 1.7 | 2.6 | 0.00 | 0.00 | 0.00 | 37 | 1027.3 |
| 20260501192531 | 59 | 359 | 1.7 | 2.6 | 0.00 | 0.00 | 0.00 | 37 | 1027.3 |
| 20260501192050 | 59 | 315 | 0.9 | 1.7 | 0.00 | 0.00 | 0.00 | 38 | 1027.3 |
| 20260501191610 | 59 | 341 | 1.7 | 1.7 | 0.00 | 0.00 | 0.00 | 38 | 1027.3 |
| 20260501191130 | 59 | 0 | 1.7 | 1.7 | 0.00 | 0.00 | 0.00 | 38 | 1027.3 |
| 20260501190649 | 60 | 319 | 1.7 | 1.7 | 0.00 | 0.00 | 0.00 | 37 | 1027.2 |
| 20260501190209 | 60 | 315 | 1.7 | 1.7 | 0.00 | 0.00 | 0.00 | 37 | 1027.2 |
| 20260501185729 | 60 | 315 | 1.7 | 1.7 | 0.00 | 0.00 | 0.00 | 37 | 1027.3 |
| 20260501185248 | 60 | 314 | 1.7 | 1.7 | 0.00 | 0.00 | 0.00 | 38 | 1027.2 |
| 20260501184808 | 60 | 270 | 1.7 | 1.7 | 0.00 | 0.00 | 0.00 | 36 | 1027.2 |
| 20260501184328 | 61 | 308 | 0.9 | 1.7 | 0.00 | 0.00 | 0.00 | 36 | 1027.2 |
| 20260501183851 | 61 | 315 | 0.9 | 1.7 | 0.00 | 0.00 | 0.00 | 36 | 1027.2 |
| 20260501183847 | 61 | 315 | 0.9 | 1.7 | 0.00 | 0.00 | 0.00 | 36 | 1027.2 |
| 20260501183407 | 61 | 315 | 0.0 | 0.0 | 0.00 | 0.00 | 0.00 | 35 | 1027.1 |
| 20260501182930 | 61 | 315 | 0.9 | 1.7 | 0.00 | 0.00 | 0.00 | 37 | 1027.1 |
| 20260501182926 | 61 | 315 | 0.9 | 1.7 | 0.00 | 0.00 | 0.00 | 37 | 1027.1 |
| 20260501182537 | 62 | 38 | 0.9 | 1.7 | 0.00 | 0.00 | 0.00 | 36 | 1027.1 |
| 20260501182446 | 62 | 38 | 0.9 | 1.7 | 0.00 | 0.00 | 0.00 | 36 | 1027.1 |
| 20260501182106 | 63 | 45 | 0.9 | 0.9 | 0.00 | 0.00 | 0.00 | 35 | 1027.0 |
| 20260501182005 | 63 | 45 | 0.9 | 0.9 | 0.00 | 0.00 | 0.00 | 35 | 1027.0 |
| 20260501181525 | 64 | 45 | 1.7 | 1.7 | 0.00 | 0.00 | 0.00 | 34 | 1027.0 |
| 20260501181045 | 66 | 42 | 1.7 | 1.7 | 0.00 | 0.00 | 0.00 | 33 | 1026.9 |
| 20260501180604 | 67 | 315 | 0.0 | 0.9 | 0.00 | 0.00 | 0.00 | 33 | 1026.9 |
| 20260501180327 | 68 | 296 | 0.0 | 0.0 | 0.00 | 0.00 | 0.00 | 33 | 1026.9 |
| 20260501180127 | 68 | 296 | 0.0 | 0.0 | 0.00 | 0.00 | 0.00 | 33 | 1026.9 |
| 20260501180123 | 68 | 296 | 0.0 | 0.0 | 0.00 | 0.00 | 0.00 | 33 | 1026.9 |
| 20260501175642 | 69 | 270 | 0.9 | 0.9 | 0.00 | 0.00 | 0.00 | 32 | 1026.9 |
| 20260501175201 | 69 | 270 | 0.9 | 1.7 | 0.00 | 0.00 | 0.00 | 32 | 1026.9 |
| 20260501174721 | 69 | 244 | 0.9 | 1.7 | 0.00 | 0.00 | 0.00 | 32 | 1026.9 |
| 20260501174240 | 69 | 234 | 0.9 | 1.7 | 0.00 | 0.00 | 0.00 | 33 | 1026.9 |
| 20260501173759 | 69 | 225 | 1.7 | 2.6 | 0.00 | 0.00 | 0.00 | 33 | 1026.9 |
| 20260501173608 | 70 | 231 | 1.7 | 1.7 | 0.00 | 0.00 | 0.00 | 33 | 1026.9 |
| 20260501173318 | 70 | 231 | 1.7 | 1.7 | 0.00 | 0.00 | 0.00 | 33 | 1026.9 |
| 20260501172837 | 70 | 225 | 0.9 | 1.7 | 0.00 | 0.00 | 0.00 | 33 | 1026.9 |
| 20260501172444 | 71 | 193 | 1.7 | 2.6 | 0.00 | 0.00 | 0.00 | 32 | 1026.9 |
| 20260501172400 | 71 | 193 | 1.7 | 2.6 | 0.00 | 0.00 | 0.00 | 32 | 1026.9 |
| 20260501172356 | 71 | 193 | 1.7 | 2.6 | 0.00 | 0.00 | 0.00 | 32 | 1026.9 |
| 20260501171915 | 72 | 206 | 0.9 | 1.7 | 0.00 | 0.00 | 0.00 | 31 | 1026.8 |
| 20260501171508 | 75 | 315 | 0.0 | 0.0 | 0.00 | 0.00 | 0.00 | 30 | 1026.8 |
| 20260501171434 | 75 | 315 | 0.0 | 0.0 | 0.00 | 0.00 | 0.00 | 30 | 1026.8 |
| 20260501170953 | 76 | 347 | 0.0 | 0.0 | 0.00 | 0.00 | 0.00 | 28 | 1026.8 |
| 20260501170512 | 74 | 350 | 0.0 | 1.7 | 0.00 | 0.00 | 0.00 | 29 | 1026.8 |
| 20260501170108 | 73 | 334 | 1.7 | 1.7 | 0.00 | 0.00 | 0.00 | 30 | 1026.9 |
| 20260501170032 | 73 | 334 | 1.7 | 1.7 | 0.00 | 0.00 | 0.00 | 30 | 1026.9 |
| 20260501165551 | 73 | 16 | 1.7 | 3.5 | 0.00 | 0.00 | 0.00 | 30 | 1026.9 |
| 20260501165110 | 73 | 39 | 3.5 | 4.3 | 0.00 | 0.00 | 0.00 | 30 | 1026.9 |
| 20260501164633 | 75 | 51 | 1.7 | 3.5 | 0.00 | 0.00 | 0.00 | 29 | 1026.9 |
| 20260501164629 | 75 | 51 | 1.7 | 3.5 | 0.00 | 0.00 | 0.00 | 29 | 1026.9 |
| 20260501164151 | 76 | 83 | 0.9 | 1.7 | 0.00 | 0.00 | 0.00 | 29 | 1026.9 |
| 20260501164147 | 76 | 83 | 0.9 | 1.7 | 0.00 | 0.00 | 0.00 | 29 | 1026.9 |
| 20260501164009 | 76 | 38 | 0.9 | 1.7 | 0.00 | 0.00 | 0.00 | 29 | 1027.0 |
| 20260501163710 | 76 | 38 | 0.9 | 1.7 | 0.00 | 0.00 | 0.00 | 29 | 1027.0 |
| 20260501163706 | 76 | 38 | 0.9 | 1.7 | 0.00 | 0.00 | 0.00 | 29 | 1027.0 |
| 20260501163225 | 76 | 307 | 0.9 | 1.7 | 0.00 | 0.00 | 0.00 | 29 | 1027.0 |
| 20260501162748 | 77 | 341 | 0.9 | 2.6 | 0.00 | 0.00 | 0.00 | 29 | 1027.1 |
| 20260501162744 | 77 | 341 | 0.9 | 2.6 | 0.00 | 0.00 | 0.00 | 29 | 1027.1 |
| 20260501162305 | 77 | 60 | 0.9 | 1.7 | 0.00 | 0.00 | 0.00 | 29 | 1027.2 |
| 20260501161916 | 77 | 90 | 0.9 | 1.7 | 0.00 | 0.00 | 0.00 | 29 | 1027.2 |
| 20260501161826 | 77 | 90 | 0.9 | 1.7 | 0.00 | 0.00 | 0.00 | 29 | 1027.2 |
| 20260501161822 | 77 | 90 | 0.9 | 1.7 | 0.00 | 0.00 | 0.00 | 29 | 1027.2 |
| 20260501161345 | 76 | 90 | 0.0 | 1.7 | 0.00 | 0.00 | 0.00 | 29 | 1027.2 |
| 20260501161341 | 76 | 90 | 0.0 | 1.7 | 0.00 | 0.00 | 0.00 | 29 | 1027.2 |
| 20260501161008 | 76 | 74 | 0.9 | 2.6 | 0.00 | 0.00 | 0.00 | 29 | 1027.3 |
| 20260501160904 | 76 | 74 | 0.9 | 2.6 | 0.00 | 0.00 | 0.00 | 29 | 1027.3 |
| 20260501160900 | 76 | 74 | 0.9 | 2.6 | 0.00 | 0.00 | 0.00 | 29 | 1027.3 |
| 20260501160508 | 75 | 91 | 1.7 | 4.3 | 0.00 | 0.00 | 0.00 | 30 | 1027.3 |
| 20260501160422 | 75 | 91 | 1.7 | 4.3 | 0.00 | 0.00 | 0.00 | 30 | 1027.3 |
| 20260501160419 | 75 | 91 | 1.7 | 4.3 | 0.00 | 0.00 | 0.00 | 30 | 1027.3 |
| 20260501155938 | 74 | 69 | 2.6 | 5.2 | 0.00 | 0.00 | 0.00 | 30 | 1027.3 |
| 20260501155456 | 74 | 33 | 2.6 | 4.3 | 0.00 | 0.00 | 0.00 | 30 | 1027.3 |
| 20260501155108 | 74 | 70 | 3.5 | 5.2 | 0.00 | 0.00 | 0.00 | 30 | 1027.3 |
| 20260501155015 | 74 | 70 | 3.5 | 5.2 | 0.00 | 0.00 | 0.00 | 30 | 1027.3 |
| 20260501154534 | 73 | 151 | 3.5 | 5.2 | 0.00 | 0.00 | 0.00 | 31 | 1027.4 |
| 20260501154206 | 76 | 26 | 1.7 | 3.5 | 0.00 | 0.00 | 0.00 | 30 | 1027.4 |
| 20260501154053 | 76 | 26 | 1.7 | 3.5 | 0.00 | 0.00 | 0.00 | 30 | 1027.4 |
| 20260501154040 | 76 | 34 | 1.7 | 4.3 | 0.00 | 0.00 | 0.00 | 30 | 1027.5 |
| 20260501153612 | 76 | 34 | 1.7 | 4.3 | 0.00 | 0.00 | 0.00 | 30 | 1027.5 |
| 20260501153131 | 75 | 146 | 1.7 | 4.3 | 0.00 | 0.00 | 0.00 | 30 | 1027.4 |
| 20260501152649 | 75 | 201 | 1.7 | 2.6 | 0.00 | 0.00 | 0.00 | 30 | 1027.5 |
| 20260501152208 | 75 | 101 | 1.7 | 4.3 | 0.00 | 0.00 | 0.00 | 31 | 1027.5 |
| 20260501151727 | 74 | 59 | 2.6 | 4.3 | 0.00 | 0.00 | 0.00 | 29 | 1027.6 |
| 20260501151246 | 75 | 32 | 2.6 | 4.3 | 0.00 | 0.00 | 0.00 | 30 | 1027.6 |
| 20260501150805 | 73 | 45 | 4.3 | 6.1 | 0.00 | 0.00 | 0.00 | 30 | 1027.7 |
| 20260501150324 | 73 | 79 | 4.3 | 9.6 | 0.00 | 0.00 | 0.00 | 31 | 1027.6 |